PDT,Max TemperatureF,Mean TemperatureF,Min TemperatureF,Max Dew PointF,MeanDew PointF,Min DewpointF,Max Humidity, Mean Humidity, Min Humidity, Max Sea Level PressureIn, Mean Sea Level PressureIn, Min Sea Level PressureIn, Max VisibilityMiles, Mean VisibilityMiles, Min VisibilityMiles, Max Wind SpeedMPH, Mean Wind SpeedMPH, Max Gust SpeedMPH,PrecipitationIn, CloudCover, Events, WindDirDegrees
2014-3-1,61,58,54,54,51,48,93,85,77,29.97,29.83,29.76,10,6,1,12,5,17,1.00,7,Rain,102
2014-3-2,62,58,54,54,51,49,89,77,65,30.15,30.10,30.00,10,9,1,7,2,12,0.17,7,Rain,107
2014-3-3,68,60,51,53,51,49,96,74,52,30.14,30.09,30.02,10,9,4,9,2,18,0.00,0,,287
2014-3-4,69,62,54,55,53,51,93,76,58,30.05,30.02,29.96,10,7,2,8,2,14,0.00,4,,86
2014-3-5,72,63,54,56,54,51,93,73,53,30.08,30.04,30.01,10,7,3,9,1,13,0.00,0,,280
2014-3-6,72,65,57,57,55,53,93,75,57,30.08,30.02,29.95,10,8,3,8,3,13,0.00,3,,133
2014-3-7,71,64,56,56,53,43,93,65,37,30.01,29.96,29.90,10,9,6,10,2,14,0.00,2,,110
2014-3-8,81,66,51,49,41,29,83,50,16,30.11,30.05,29.96,10,10,7,9,1,15,0.00,0,,276
2014-3-9,84,71,58,44,28,16,56,32,8,30.15,30.09,30.04,10,10,10,13,3,19,0.00,0,,305
2014-3-10,80,68,56,51,38,30,72,46,19,30.06,30.02,29.98,10,9,2,12,1,16,0.00,0,,315
2014-3-11,78,66,54,56,46,35,84,53,22,30.00,29.96,29.90,10,10,2,7,1,11,0.00,0,,280
2014-3-12,80,67,54,55,48,20,86,48,10,30.01,29.96,29.89,10,9,4,10,2,16,0.00,1,,250
2014-3-13,71,64,57,53,51,48,84,69,46,30.02,29.95,29.91,10,10,10,7,1,,0.00,2,,252
2014-3-14,71,62,52,55,52,48,89,71,53,30.11,30.06,30.01,10,8,4,8,1,12,0.00,2,,345
2014-3-15,81,68,54,54,50,44,93,62,30,30.19,30.15,30.11,10,9,6,9,1,14,0.00,1,,270
2014-3-16,90,73,56,51,41,28,72,42,11,30.22,30.15,30.07,10,10,10,9,2,15,0.00,0,,292
2014-3-17,74,65,56,56,51,44,80,61,41,30.06,29.90,29.78,10,10,7,12,3,20,0.00,0,,95
2014-3-18,75,67,58,55,52,48,84,63,41,29.94,29.84,29.81,10,10,8,10,3,16,0.00,4,,102
2014-3-19,79,68,56,55,52,37,86,55,23,30.05,30.00,29.94,10,9,6,8,1,14,0.00,0,,205
2014-3-20,73,64,55,55,53,51,93,71,49,30.06,30.00,29.94,10,8,5,10,1,16,0.00,2,,270
2014-3-21,67,61,55,52,50,47,86,69,52,30.01,29.98,29.94,10,9,7,8,1,14,0.00,5,,140
2014-3-22,68,62,56,51,49,46,77,67,56,30.10,30.04,29.99,10,10,10,9,2,16,0.00,7,,273
2014-3-23,69,61,53,53,51,48,83,71,58,30.14,30.08,30.02,10,9,7,10,2,16,0.00,4,,270
2014-3-24,66,62,58,53,53,52,86,75,63,30.12,30.06,29.99,10,7,4,8,2,14,0.00,7,,239
2014-3-25,65,61,57,53,52,50,80,72,63,30.03,29.96,29.91,10,9,6,8,1,14,0.00,8,,265
2014-3-26,66,61,55,54,51,46,86,69,52,29.98,29.92,29.89,10,9,4,15,5,27,0.01,5,Rain,268
2014-3-27,69,60,51,50,47,41,89,66,43,30.09,30.02,29.97,10,10,10,12,2,18,0.00,1,,220
2014-3-28,71,64,56,53,49,46,80,62,44,30.16,30.12,30.08,10,10,10,12,3,18,0.00,2,,100
2014-3-29,76,65,53,53,50,48,83,61,38,30.14,30.05,29.97,10,10,7,10,2,16,0.00,0,,273
2014-3-30,72,64,56,53,47,34,86,56,26,30.04,30.00,29.96,10,10,10,13,3,24,0.00,2,,280
2014-3-31,68,61,54,50,48,45,83,66,48,30.04,30.01,29.98,10,10,10,13,3,20,T,3,,110